• In Kazakhstan
  • List of Countries
  • For 7 days
  • Water Temperature
  • Satellite Maps
  • Weather Map
  • News
  • Weather Widgets
  • user-avatar
    Login

    Hourly Weather Stepanakert

    Today, 24 April, Wednesday

    Time Temperature Precipitation Wind Pressure Humidity
    00:00 +4°C° 0 mm 1 mps 698 mmHg 74%
    01:00 +4°C° 0 mm 1 mps 698 mmHg 73%
    02:00 +4°C° 0 mm 1 mps 698 mmHg 73%
    03:00 +4°C° 0 mm 1 mps 698 mmHg 72%
    04:00 +5°C° 0 mm 1 mps 699 mmHg 72%
    05:00 +5°C° 0 mm 1 mps 699 mmHg 72%
    06:00 +5°C° 0 mm 1 mps 699 mmHg 72%
    07:00 +7°C° 0 mm 1 mps 699 mmHg 69%
    08:00 +8°C° 0 mm 1 mps 700 mmHg 66%
    09:00 +9°C° 0 mm 2 mps 700 mmHg 62%
    10:00 +9°C° 0 mm 2 mps 699 mmHg 62%
    11:00 +10°C° 0 mm 2 mps 699 mmHg 62%
    12:00 +12°C° 0 mm 2 mps 699 mmHg 61%
    13:00 +12°C° 0.1 mm 2 mps 698 mmHg 62%
    14:00 +12°C° 0.1 mm 2 mps 698 mmHg 62%
    15:00 +12°C° 0.1 mm 2 mps 698 mmHg 62%
    16:00 +12°C° 0 mm 2 mps 697 mmHg 65%
    17:00 +10°C° 0 mm 2 mps 697 mmHg 68%
    18:00 +9°C° 0 mm 2 mps 697 mmHg 71%
    19:00 +8°C° 0 mm 2 mps 697 mmHg 72%
    20:00 +7°C° 0 mm 2 mps 697 mmHg 72%
    21:00 +6°C° 0 mm 2 mps 697 mmHg 73%
    22:00 +6°C° 0 mm 2 mps 697 mmHg 72%
    23:00 +7°C° 0 mm 1 mps 698 mmHg 70%

    Tomorrow, 25 April, Thursday

    Time Temperature Precipitation Wind Pressure Humidity
    00:00 +7°C° 0 mm 1 mps 698 mmHg 68%
    01:00 +7°C° 0 mm 1 mps 698 mmHg 69%
    02:00 +7°C° 0 mm 1 mps 698 mmHg 70%
    03:00 +6°C° 0 mm 1 mps 697 mmHg 71%
    04:00 +7°C° 0 mm 1 mps 698 mmHg 73%
    05:00 +7°C° 0 mm 1 mps 698 mmHg 74%
    06:00 +7°C° 0 mm 1 mps 698 mmHg 76%
    07:00 +8°C° 0.1 mm 1 mps 699 mmHg 73%
    08:00 +10°C° 0.1 mm 1 mps 699 mmHg 70%
    09:00 +11°C° 0.1 mm 1 mps 699 mmHg 66%
    10:00 +12°C° 0.2 mm 2 mps 699 mmHg 65%
    11:00 +12°C° 0.2 mm 2 mps 699 mmHg 63%
    12:00 +13°C° 0.2 mm 2 mps 698 mmHg 61%
    13:00 +13°C° 0.4 mm 2 mps 698 mmHg 62%
    14:00 +13°C° 0.4 mm 2 mps 698 mmHg 62%
    15:00 +13°C° 0.4 mm 2 mps 697 mmHg 62%
    16:00 +13°C° 0.5 mm 2 mps 697 mmHg 66%
    17:00 +12°C° 0.5 mm 1 mps 697 mmHg 71%
    18:00 +11°C° 0.5 mm 1 mps 697 mmHg 75%
    19:00 +10°C° 0.2 mm 1 mps 698 mmHg 77%
    20:00 +9°C° 0.2 mm 1 mps 698 mmHg 79%
    21:00 +9°C° 0.2 mm 1 mps 698 mmHg 80%
    22:00 +8°C° 0 mm 1 mps 698 mmHg 81%
    23:00 +8°C° 0 mm 1 mps 698 mmHg 81%

    Day after tomorrow, 26 April, Friday

    Time Temperature Precipitation Wind Pressure Humidity
    00:00 +7°C° 0 mm 1 mps 698 mmHg 81%
    01:00 +7°C° 0 mm 1 mps 698 mmHg 80%
    02:00 +6°C° 0 mm 1 mps 698 mmHg 79%
    03:00 +5°C° 0 mm 2 mps 698 mmHg 78%
    04:00 +6°C° 0 mm 1 mps 698 mmHg 77%
    05:00 +7°C° 0 mm 1 mps 698 mmHg 76%
    06:00 +7°C° 0 mm 1 mps 698 mmHg 75%
    07:00 +9°C° 0 mm 1 mps 698 mmHg 70%
    08:00 +9°C° 0 mm 2 mps 699 mmHg 64%
    09:00 +12°C° 0 mm 2 mps 699 mmHg 59%
    10:00 +13°C° 0 mm 2 mps 698 mmHg 56%
    11:00 +14°C° 0 mm 2 mps 698 mmHg 54%
    12:00 +13°C° 0 mm 3 mps 698 mmHg 52%
    13:00 +14°C° 0 mm 2 mps 697 mmHg 52%
    14:00 +15°C° 0 mm 2 mps 697 mmHg 52%
    15:00 +15°C° 0 mm 2 mps 696 mmHg 52%
    16:00 +14°C° 0 mm 2 mps 696 mmHg 56%
    17:00 +13°C° 0 mm 2 mps 696 mmHg 59%
    18:00 +12°C° 0 mm 1 mps 696 mmHg 63%
    19:00 +11°C° 0 mm 1 mps 696 mmHg 66%
    20:00 +10°C° 0 mm 1 mps 697 mmHg 69%
    21:00 +8°C° 0 mm 1 mps 697 mmHg 71%
    22:00 +8°C° 0 mm 1 mps 697 mmHg 72%
    23:00 +7°C° 0 mm 2 mps 697 mmHg 72%

    27 April, Saturday

    Time Temperature Precipitation Wind Pressure Humidity
    00:00 +7°C° 0 mm 2 mps 697 mmHg 73%
    01:00 +6°C° 0 mm 2 mps 697 mmHg 73%
    02:00 +6°C° 0 mm 2 mps 696 mmHg 73%
    03:00 +7°C° 0 mm 1 mps 696 mmHg 73%
    04:00 +7°C° 0 mm 1 mps 696 mmHg 72%
    05:00 +7°C° 0 mm 1 mps 697 mmHg 70%
    06:00 +8°C° 0 mm 1 mps 697 mmHg 69%
    07:00 +10°C° 0 mm 1 mps 697 mmHg 61%
    08:00 +10°C° 0 mm 2 mps 697 mmHg 54%
    09:00 +13°C° 0 mm 2 mps 697 mmHg 46%
    10:00 +14°C° 0 mm 2 mps 697 mmHg 45%
    11:00 +15°C° 0 mm 2 mps 697 mmHg 44%
    12:00 +16°C° 0 mm 3 mps 697 mmHg 42%
    13:00 +16°C° 0 mm 3 mps 696 mmHg 44%
    14:00 +16°C° 0 mm 3 mps 696 mmHg 45%
    15:00 +17°C° 0 mm 3 mps 695 mmHg 46%
    16:00 +16°C° 0 mm 2 mps 695 mmHg 51%
    17:00 +14°C° 0 mm 2 mps 695 mmHg 57%
    18:00 +13°C° 0 mm 1 mps 695 mmHg 62%
    19:00 +12°C° 0 mm 1 mps 695 mmHg 66%
    20:00 +11°C° 0 mm 1 mps 695 mmHg 71%
    21:00 +9°C° 0 mm 1 mps 695 mmHg 75%
    22:00 +9°C° 0 mm 1 mps 695 mmHg 75%
    23:00 +9°C° 0 mm 1 mps 695 mmHg 74%

    28 April, Sunday

    Time Temperature Precipitation Wind Pressure Humidity
    00:00 +8°C° 0 mm 1 mps 694 mmHg 74%
    01:00 +8°C° 0 mm 1 mps 694 mmHg 74%
    02:00 +8°C° 0 mm 1 mps 694 mmHg 73%
    03:00 +8°C° 0 mm 1 mps 694 mmHg 72%
    04:00 +8°C° 0 mm 1 mps 694 mmHg 70%
    05:00 +9°C° 0 mm 1 mps 694 mmHg 68%
    06:00 +9°C° 0 mm 1 mps 694 mmHg 66%
    07:00 +11°C° 0 mm 1 mps 694 mmHg 61%
    08:00 +13°C° 0 mm 2 mps 694 mmHg 57%
    09:00 +15°C° 0 mm 2 mps 694 mmHg 53%
    10:00 +16°C° 0 mm 2 mps 694 mmHg 51%
    11:00 +17°C° 0 mm 2 mps 693 mmHg 50%
    12:00 +18°C° 0 mm 3 mps 693 mmHg 48%
    13:00 +19°C° 0.2 mm 3 mps 693 mmHg 50%
    14:00 +19°C° 0.2 mm 3 mps 692 mmHg 51%
    15:00 +19°C° 0.2 mm 2 mps 692 mmHg 53%
    16:00 +18°C° 0.2 mm 2 mps 692 mmHg 58%
    17:00 +17°C° 0.2 mm 2 mps 692 mmHg 64%
    18:00 +16°C° 0.2 mm 1 mps 692 mmHg 69%
    19:00 +15°C° 0.1 mm 2 mps 692 mmHg 70%
    20:00 +14°C° 0.1 mm 2 mps 692 mmHg 72%
    21:00 +12°C° 0.1 mm 2 mps 692 mmHg 73%
    22:00 +12°C° 0 mm 2 mps 692 mmHg 68%
    23:00 +12°C° 0 mm 2 mps 692 mmHg 64%

    29 April, Monday

    Time Temperature Precipitation Wind Pressure Humidity
    00:00 +12°C° 0 mm 2 mps 692 mmHg 59%
    01:00 +10°C° 0 mm 2 mps 692 mmHg 57%
    02:00 +10°C° 0 mm 2 mps 692 mmHg 56%
    03:00 +10°C° 0 mm 2 mps 692 mmHg 54%
    04:00 +10°C° 0 mm 2 mps 692 mmHg 54%
    05:00 +10°C° 0 mm 2 mps 692 mmHg 55%
    06:00 +12°C° 0 mm 2 mps 692 mmHg 55%
    07:00 +14°C° 0 mm 2 mps 693 mmHg 52%
    08:00 +16°C° 0 mm 2 mps 693 mmHg 49%
    09:00 +18°C° 0 mm 2 mps 693 mmHg 46%
    10:00 +19°C° 0 mm 2 mps 693 mmHg 46%
    11:00 +20°C° 0 mm 2 mps 693 mmHg 46%
    12:00 +20°C° 0 mm 3 mps 693 mmHg 46%
    13:00 +20°C° 0.5 mm 3 mps 692 mmHg 47%
    14:00 +20°C° 0.5 mm 3 mps 692 mmHg 49%
    15:00 +20°C° 0.5 mm 2 mps 692 mmHg 50%
    16:00 +19°C° 0.3 mm 2 mps 692 mmHg 55%
    17:00 +19°C° 0.3 mm 2 mps 692 mmHg 60%
    18:00 +19°C° 0.3 mm 1 mps 691 mmHg 65%
    19:00 +16°C° 0.4 mm 2 mps 692 mmHg 68%
    20:00 +15°C° 0.4 mm 2 mps 692 mmHg 71%
    21:00 +14°C° 0.4 mm 2 mps 692 mmHg 74%
    22:00 +13°C° 0 mm 2 mps 692 mmHg 73%
    23:00 +13°C° 0 mm 2 mps 692 mmHg 71%
    Show more